Regional Weather Roundup
Issued by NWS Newport/Morehead, NC

Current Version | Previous Version | Graphics & Text | Print | Product List | Glossary Off
Versions: 1 2 3 4 5 6 7 8 9 10 11 12 13 14 15 16 17 18 19 20 21 22 23 24 25 26 27 28 29 30 31 32 33 34 35 36 37 38 39 40 41 42 43 44 45 46 47 48 49 50

000
ASUS42 KMHX 051512
RWRMHX
WEATHER ROUNDUP FOR EASTERN NORTH CAROLINA
NATIONAL WEATHER SERVICE NEWPORT/MOREHEAD CITY NC
1000 AM EST THU MAR 05 2015

NOTE: "FAIR" INDICATES FEW OR NO CLOUDS BELOW 12,000 FEET
WITH NO SIGNIFICANT WEATHER AND/OR OBSTRUCTIONS TO VISIBILITY

NCZ015>017-031-032-045>047-102-103-051600-
NORTH COAST

CITY           SKY/WX    TMP DP  RH WIND       PRES   REMARKS
EDENTON        CLOUDY    44  43  96 NE10G16   29.99F
ELIZABETH CITY LGT RAIN  41  39  93 NE18G28   30.03S
KITTY HAWK     CLOUDY    39  39 100 N9G18     30.01R FOG
MANTEO         CLOUDY    39  39 100 N26G32    30.02R FOG

$$

NCZ045>047-081-094-103-104-051600-
CENTRAL COAST

CITY           SKY/WX    TMP DP  RH WIND       PRES   REMARKS
FRISCO         FOG       59  59 100 SW12      29.97F VSB 1/4
SWANQUARTER      N/A     63 N/A N/A S5G12     29.91S

$$

NCZ095-097-098-100-101-051600-
SOUTHERN COAST

CITY           SKY/WX    TMP DP  RH WIND       PRES   REMARKS
BEAUFORT       CLOUDY    59  59 100 SW9       29.98S FOG
CEDAR ISLAND     N/A     70 N/A N/A SW13G30   30.00S
JACKSONVILLE   MOSUNNY   75  61  61 SW17G30   29.95F
PINEY ISLAND     N/A    N/A N/A N/A MISG      29.96S
WILMINGTON     SUNNY     71  63  75 SW18G29   29.98S


$$

NCZ011>013-027>030-043-044-078>080-089-090>093-098-051600-
COASTAL PLAIN

CITY           SKY/WX    TMP DP  RH WIND       PRES   REMARKS
AHOSKIE        LGT RAIN  41  39  95 NE15G23   30.02R
CLINTON        CLOUDY    71  64  77 SW7G16    29.94S
ELIZABETHTOWN  PTSUNNY   71  62  72 SW10G20   29.96S
GOLDSBORO      PTSUNNY   71  71  98 SW17G25   29.89F
GREENVILLE     PTSUNNY   70  63  78 SW3       29.94F
HAVELOCK       MOSUNNY   72  61  68 SW18G26   29.97F
KENANSVILLE    MOSUNNY   71  60  69 SW8       29.95S
KINSTON        PTSUNNY   73  63  68 SW15      29.93F
NEW BERN       MOSUNNY   75  61  61 SW12      29.95F
RICHLANDS      MOSUNNY   73  61  64 SW16G23   29.95F
ROCKY MOUNT    CLOUDY    52  49  89 N13G18    29.94R
WASHINGTON     PTSUNNY   70  62  75 SW8       29.93F
WHITEVILLE     MOSUNNY   72  62  71 SW9G17    29.98R

$$

AMZ130-135-150-152-154-156-158-170-250-252-270-ANZ085-086-088-633-658-670-051600-
MARINE OBSERVATIONS

STATION/POSITION TIME  TEMP    WIND        PRES    WAVE   SWELL
                       AIR SEA DIR/SP/G            HT/PER HT/PER
                 (UTC) (F)     (DEG/KT/KT) (MB)    (FT/S) (FT/S)
CHESAPEAKE LIGHT 1400   37      20/ 22/ 24 1017.1
64 E VA BEACH    1450   46 51   10/ 23/ 27 1014.4    6/ 5
DUCK             1400   38 36   10/ 15/ 21 1015.1
2 E DUCK         1411      35                N/A     4/ 4   2/11
10 NE DUCK       1422      38                N/A     5/ 7   2/11
OREGON INLET     1400      50  360/ 10/ 15 1015.3
HATTERAS CG      1400   61 49  230/ 12/ 18 1015.6
CAPE LOOKOUT     1500   62     220/ 13/ 20 1015.0
BEAUFORT LAB     1400   57 46  210/ 10/ 13 1014.2
27 SE WRIGHTSVLE NOT AVBL
5 SE WRIGHTSVLE  NOT AVBL
225 S CAPE HAT   1450   73 73  210/ 19/ 23 1021.1    6/11   3/11
41 SE CHARLESTON 1450   70 68  200/ 21/ 27 1016.0    6/ 7   3/ 7

$$


USA.gov is the U.S. government's official web portal to all federal, state and local government web resources and services.